TimeCDT,TemperatureF,Dew PointF,Humidity,Sea Level PressureIn,VisibilityMPH,Wind Direction,Wind SpeedMPH,Gust SpeedMPH,PrecipitationIn,Events,Conditions,WindDirDegrees,DateUTC
12:54 AM,43.0,37.9,82,30.28,10.0,Calm,Calm,-,N/A,,Clear,0,2013-10-29 05:54:00
1:54 AM,43.0,37.0,80,30.28,10.0,Calm,Calm,-,N/A,,Clear,0,2013-10-29 06:54:00
2:54 AM,45.0,37.0,74,30.29,10.0,ENE,3.5,-,N/A,,Clear,60,2013-10-29 07:54:00
3:54 AM,44.1,36.0,73,30.28,10.0,ENE,4.6,-,N/A,,Clear,60,2013-10-29 08:54:00
4:54 AM,42.1,36.0,79,30.28,10.0,Calm,Calm,-,N/A,,Clear,0,2013-10-29 09:54:00
5:54 AM,43.0,37.0,80,30.30,10.0,NE,4.6,-,N/A,,Clear,50,2013-10-29 10:54:00
6:50 AM,42.8,37.4,81,30.29,10.0,ENE,3.5,-,N/A,,Scattered Clouds,60,2013-10-29 11:50:00
6:54 AM,43.0,39.0,86,30.30,10.0,ENE,3.5,-,N/A,,Mostly Cloudy,60,2013-10-29 11:54:00
7:05 AM,44.6,41.0,87,30.29,2.0,Calm,Calm,-,N/A,,Mostly Cloudy,0,2013-10-29 12:05:00
7:14 AM,44.6,42.8,93,30.28,0.5,Calm,Calm,-,N/A,Fog,Fog,0,2013-10-29 12:14:00
7:32 AM,44.6,42.8,93,30.29,0.2,Calm,Calm,-,N/A,Fog,Fog,0,2013-10-29 12:32:00
7:54 AM,45.0,43.0,93,30.30,0.2,Calm,Calm,-,N/A,Fog,Fog,0,2013-10-29 12:54:00
8:54 AM,46.9,46.0,97,30.32,0.2,Calm,Calm,-,N/A,Fog,Fog,0,2013-10-29 13:54:00
9:54 AM,50.0,48.0,93,30.32,0.2,ESE,3.5,-,N/A,Fog,Fog,120,2013-10-29 14:54:00
10:26 AM,51.8,50.0,94,30.32,0.5,ESE,3.5,-,N/A,Fog,Fog,110,2013-10-29 15:26:00
10:50 AM,51.8,50.0,94,30.31,1.0,ESE,3.5,-,N/A,,Overcast,120,2013-10-29 15:50:00
10:54 AM,52.0,50.0,93,30.31,1.2,Calm,Calm,-,N/A,,Overcast,0,2013-10-29 15:54:00
11:04 AM,51.8,50.0,94,30.30,1.8,ESE,4.6,-,N/A,,Overcast,110,2013-10-29 16:04:00
11:18 AM,51.8,51.8,100,30.30,2.0,Calm,Calm,-,N/A,,Overcast,0,2013-10-29 16:18:00
11:44 AM,53.6,51.8,94,30.29,3.0,East,3.5,-,N/A,,Overcast,80,2013-10-29 16:44:00
11:54 AM,53.1,52.0,96,30.30,3.0,East,4.6,-,N/A,,Overcast,80,2013-10-29 16:54:00
12:54 PM,55.0,52.0,89,30.29,3.0,Calm,Calm,-,N/A,,Overcast,0,2013-10-29 17:54:00
1:31 PM,55.4,51.8,88,30.26,5.0,SSE,3.5,-,N/A,,Overcast,150,2013-10-29 18:31:00
1:54 PM,55.9,52.0,87,30.26,4.0,SSE,4.6,-,N/A,,Overcast,150,2013-10-29 18:54:00
2:35 PM,55.4,53.6,94,30.21,5.0,East,5.8,-,0.01,Rain,Light Rain,80,2013-10-29 19:35:00
2:54 PM,55.9,53.1,90,30.21,2.0,SE,8.1,-,0.02,Rain,Rain,130,2013-10-29 19:54:00
3:54 PM,55.9,54.0,93,30.19,2.0,ESE,5.8,-,0.01,Rain,Light Rain,120,2013-10-29 20:54:00
4:54 PM,55.9,54.0,93,30.18,2.0,SSE,6.9,-,0.04,Rain,Light Rain,150,2013-10-29 21:54:00
5:54 PM,57.0,55.0,93,30.18,2.0,ESE,4.6,-,0.08,Rain,Light Rain,120,2013-10-29 22:54:00
6:47 PM,57.2,55.4,94,30.16,5.0,ESE,5.8,-,0.05,,Overcast,120,2013-10-29 23:47:00
6:54 PM,57.0,55.0,93,30.17,5.0,East,3.5,-,0.05,,Overcast,100,2013-10-29 23:54:00
7:28 PM,57.2,55.4,94,30.16,5.0,East,5.8,-,N/A,,Overcast,100,2013-10-30 00:28:00
7:52 PM,57.2,55.4,94,30.17,3.0,Variable,5.8,-,N/A,,Overcast,0,2013-10-30 00:52:00
7:54 PM,57.0,55.0,93,30.17,3.0,East,6.9,-,N/A,,Overcast,90,2013-10-30 00:54:00
8:04 PM,57.2,55.4,94,30.16,5.0,East,5.8,-,N/A,,Overcast,100,2013-10-30 01:04:00
8:15 PM,57.2,55.4,94,30.15,5.0,East,4.6,-,N/A,,Overcast,90,2013-10-30 01:15:00
8:27 PM,57.2,55.4,94,30.16,5.0,East,3.5,-,N/A,,Overcast,90,2013-10-30 01:27:00
8:54 PM,57.0,55.0,93,30.15,5.0,ESE,4.6,-,N/A,,Overcast,120,2013-10-30 01:54:00
9:07 PM,57.2,55.4,94,30.15,5.0,ENE,4.6,-,N/A,,Overcast,70,2013-10-30 02:07:00
9:37 PM,57.2,55.4,94,30.14,4.0,Calm,Calm,-,N/A,,Overcast,0,2013-10-30 02:37:00
9:54 PM,57.9,55.9,93,30.15,4.0,ENE,3.5,-,N/A,,Overcast,70,2013-10-30 02:54:00
10:41 PM,57.2,55.4,94,30.14,4.0,ESE,3.5,-,N/A,,Overcast,110,2013-10-30 03:41:00
10:50 PM,57.2,55.4,94,30.14,4.0,ESE,3.5,-,0.00,Rain,Light Rain,110,2013-10-30 03:50:00
10:54 PM,57.9,55.9,93,30.14,5.0,Calm,Calm,-,0.00,Rain,Light Rain,0,2013-10-30 03:54:00
11:07 PM,57.2,55.4,94,30.13,4.0,Calm,Calm,-,0.00,,Overcast,0,2013-10-30 04:07:00
11:27 PM,57.2,55.4,94,30.13,4.0,Calm,Calm,-,0.00,,Overcast,0,2013-10-30 04:27:00
11:47 PM,57.2,55.4,94,30.12,4.0,Calm,Calm,-,0.00,,Overcast,0,2013-10-30 04:47:00
11:54 PM,57.9,55.9,93,30.13,3.0,Calm,Calm,-,0.00,,Overcast,0,2013-10-30 04:54:00